Location: Nachod
(50.4170°N, 16.1670°E)
Time: 01:56:23
(UTC+02:00)

ISS - Pass Details

Date: 01 April 2019
Orbit: 408 x 410 km, 51.6° (Epoch: 26 April)

Event Time Altitude Azimuth Distance (km) Brightness Sun altitude
Rises 20:09:03 0° 279° (W) 2,338 2.4 -7.4°
Reaches altitude 10° 20:11:09 10° 281° (W) 1,476 0.8 -7.7°
Maximum altitude 20:14:27 73° 6° (N) 432 -3.7 -8.2°
Enters shadow 20:17:33 11° 92° (E) 1,389 -1.7 -8.7°
